User: anonymous   Login
Location: Gipe Farm
(40.9466°N, 95.5370°W)
Time: 04:38:42
(UTC-06:00)
Language:

Cosmos 2082 Rocket - Orbit

View from above orbital plane
View from above orbital plane
View from above satellite
View from above satellite

Ground track
Ground track

The orbit data is extracted from the following two-line orbital elements,

1 20625U 90046B   17015.82408652 -.00000278  00000-0 -11968-3 0  9990
2 20625  71.0002 108.9178 0015523 329.8957  30.1272 14.14611393376295
Epoch (UTC): 15 January 2017 19:46:41
Eccentricity: 0.0015523
inclination: 71.0002°
perigee height: 832 km
apogee height: 855 km
right ascension of ascending node: 108.9178°
argument of perigee: 329.8957°
revolutions per day: 14.14611393
mean anomaly at epoch: 30.1272°
orbit number at epoch: 37629

The dashed part of the orbit path shows where the satellite is in the earth's shadow,  

DLR